Hourly Data Report for January 15, 2003

SHERBROOKE A
QUEBEC

45°26'00.000" N
71°41'00.000" W
241.40 m
7028124
71610
YSC

Download Data

Hourly Data (January 2003)
Hourly Data Report for January 15, 2003
TIME
LST
Temp Definition
°C
Dew Point Definition
°C
Rel Hum Definition
%
Precip. Amount Definition
mm

Wind Dir Definition
10's deg

Wind Spd Definition
km/h
Visibility Definition
km
Stn Press Definition
kPa
Hmdx Definition


Wind Chill Definition


Weather Definition


00:00 -26.0 -31.1 62   11 4 15.0 98.64   -30  
01:00 -27.1 -32.2 62   18 4 15.0 98.64   -31  
02:00 -27.2 -32.0 64   19 4 15.0 98.65   -31  
03:00 -26.9 -31.5 65     0 15.0 98.63      
04:00 -28.4 -33.7 60     0 15.0 98.61      
05:00 -27.8 -32.8 62   34 4 15.0 98.61   -32  
06:00 -27.8 -32.9 62   17 4 15.0 98.63   -32  
07:00 -29.0 -33.9 63     0 15.0 98.67      
08:00 -26.9 -31.7 64   6 4 24.1 98.69   -31 Mostly Cloudy
09:00 -24.6 -29.4 64     0 24.1 98.71     Mostly Cloudy
10:00 -21.2 -25.8 66     0 19.3 98.71     Snow
11:00 -19.2 -24.4 63   20 4 16.1 98.66   -23 Snow
12:00 -17.8 -24.4 56   29 6 19.3 98.58   -22 Snow
13:00 -16.3 -23.9 52   29 6 24.1 98.52   -21 Mostly Cloudy
14:00 -13.9 -22.8 47     0 24.1 98.48     Mainly Clear
15:00 -14.5 -23.8 45   27 9 24.1 98.48   -20 Mainly Clear
16:00 -16.1 -24.4 49   28 6 24.1 98.48   -21 Mainly Clear
17:00 -19.4 -25.1 61   24 4 24.1 98.52   -23 Mainly Clear
18:00 -21.8 -26.6 65   21 4 15.0 98.55   -25  
19:00 -21.5 -26.5 64   8 4 15.0 98.57   -25  
20:00 -22.0 -26.7 66   9 6 15.0 98.56   -27  
21:00 -21.2 -26.2 64     0 4.8 98.56     Snow
22:00 -22.5 -27.3 65   10 4 15.0 98.52   -26  
23:00 -21.3 -25.8 67     0 6.4 98.49     Snow

Notes on Data Quality.

Legend

  • E = Estimated
  • M = Missing
  • NA = Not Available*
  • [empty] = Indicates an unobserved value
Date modified: